Location: Altavilla Irpina
(41.0000°N, 14.7833°E)
Time: 19:58:51
(UTC+00:00)

COSMOS 2406 - Pass Details

Date: 19 May 2025
Orbit: 845 x 859 km, 71.0° (Epoch: 20 June)

Event Time Altitude Azimuth Distance (km) Brightness Sun altitude
Exits shadow 21:59:07 60° 249° (WSW) 970 3.4 -27.5°
Maximum altitude 21:59:56 68° 295° (WNW) 912 3.4 -27.6°
Drops below altitude 10° 22:05:37 10° 19° (NNE) 2,485 6.3 -27.8°
Sets 22:08:06 0° 22° (NNE) 3,427 7.2 -28.0°
